Regional Weather Roundup
Issued by NWS

Home | Current Version | Previous Version | Graphics & Text | Print | Product List | Glossary On
Versions: 1 2 3 4 5 6 7 8 9 10 11 12 13 14 15 16 17 18 19 20 21 22 23 24 25 26 27 28 29 30 31 32 33 34 35 36 37 38 39 40 41 42 43 44 45 46 47 48 49 50
000
ASUS43 KMKX 280911
RWRWI

WISCONSIN REGIONAL WEATHER ROUNDUP
NATIONAL WEATHER SERVICE MILWAUKEE/SULLIVAN WI
400 AM CDT FRI JUL 28 2017

NOTE: "FAIR" INDICATES FEW OR NO CLOUDS BELOW 12,000 FEET WITH NO
SIGNIFICANT WEATHER AND/OR OBSTRUCTIONS TO VISIBILITY.

WIZ001-002-006>008-014>016-023>028-281000-
NORTHWEST WISCONSIN

CITY           SKY/WX    TMP DP  RH WIND       PRES   REMARKS
SUPERIOR ARPT  NOT AVBL
ASHLAND        FOG       51  50  96 CALM      30.11S VSB 1/4
HAYWARD        PTCLDY    53  51  93 NE6       30.11S
SIREN          CLEAR     55  54  94 CALM      30.10S
CUMBERLAND     CLEAR     57  55  94 NE3       30.10S
RICE LAKE      CLEAR     58  57  94 CALM      30.11R
CHETEK         CLEAR     63  59  86 NE3       30.09S
LADYSMITH      CLEAR     60  55  84 E5        30.12R
EAU CLAIRE     CLEAR     62  59  90 NE6       30.06R
MENOMONIE      CLEAR     63  60  88 N7        30.07S
NEW RICHMOND   CLEAR     60  58  95 NE3       30.08R
OSCEOLA        CLEAR     59  59 100 CALM      30.11R
$$

WIZ003>005-009-010-017-018-281000-
NORTH CENTRAL WISCONSIN

CITY           SKY/WX    TMP DP  RH WIND       PRES   REMARKS
MANITOWISH WTR MOCLDY    49  49 100 CALM      30.12S FOG
ARBOR VITAE    CLEAR     54  53  95 CALM      30.12R
WOODRUFF       CLEAR     54  53  95 CALM      30.12R
RHINELANDER    CLEAR     51  50  96 N5        30.12R
EAGLE RIVER    PTCLDY    46  46 100 CALM      30.12S FOG
LAND O LAKES     N/A     45  45 100 CALM      30.15R FOG
PHILLIPS       CLEAR     52  52 100 CALM      30.11S
TOMAHAWK       FOG       48  47  97 CALM      30.13R VSB 3/4
MEDFORD        CLEAR     56  55  97 E6        30.10S
MERRILL        PTCLDY    52  52 100 CALM      30.11R FOG
$$

WIZ029-030-035-036-043>047-281000-
CENTRAL WISCONSIN

CITY           SKY/WX    TMP DP  RH WIND       PRES   REMARKS
WAUSAU         CLEAR     59  58  96 CALM      30.08R
MOSINEE        CLEAR     59  59 100 N6        30.10R
MARSHFIELD     CLEAR     61  57  87 NE5       30.07S
STEVENS POINT  CLEAR     57  57 100 NW3       30.09S
WAUPACA        CLEAR     61  60  96 N3        30.07R
WAUTOMA        PTCLDY    61  57  87 NE3       30.06R
WISC RAPIDS    PTCLDY    63  58  83 NE6       30.08R
CAMP DOUGLAS   FOG       60  60 100 CALM      30.05S VSB 1/4
$$

WIZ011>013-019>022-031-037>040-048>050-281000-
NORTHEAST WISCONSIN

CITY           SKY/WX    TMP DP  RH WIND       PRES   REMARKS
ANTIGO         CLEAR     50  50 100 CALM      30.10S
SHAWANO        CLEAR     60  54  82 CALM      30.06F
OCONTO         PTCLDY    53  51  93 CALM      30.06R
STURGEON BAY     N/A     60  57  89 NE5       30.05S
GREEN BAY      CLEAR     58  55  90 N7        30.05S
MANITOWOC      CLEAR     59  55  87 N5        30.04S
APPLETON       PTCLDY    59  50  72 N10       30.05R
CLINTONVILLE   CLEAR    N/A N/A N/A CALM      30.06S
OSHKOSH        CLOUDY    65  58  78 N10       30.04R
$$

WIZ032>034-041-042-053>061-281000-
SOUTHWEST WISCONSIN

CITY           SKY/WX    TMP DP  RH WIND       PRES   REMARKS
LA CROSSE      PTCLDY    68  64  87 SE3       30.03S
SPARTA         PTCLDY    59  59  98 CALM      30.05F
VIROQUA        CLOUDY    64  63  95 E5        30.06S
BOSCOBEL       FOG       63  62  97 CALM      30.03S VSB 1/2
PRAIRIE DU CHI CLEAR     64  61  93 E3        30.02S
PLATTEVILLE    CLEAR     63  60  90 NE3       30.03R
$$

WIZ056-057-062-063-064-067-068-281000-
SOUTH CENTRAL WISCONSIN

CITY           SKY/WX    TMP DP  RH WIND       PRES   REMARKS
REEDSBURG      CLOUDY    64  64 100 CALM      30.04F
BARABOO/DELLS  CLOUDY    64  58  80 CALM      30.04F
LONE ROCK      CLOUDY    62  62 100 CALM      30.03S
MINERAL POINT  CLEAR     64  59  82 NE5       30.04R
MADISON        PTCLDY    60  58  92 N3        30.03R
MIDDLETON      PTCLDY    60  60  98 CALM      30.04S
WATERTOWN      PTCLDY    60  59  95 N5        30.02S
MONROE         CLEAR     61  54  77 N7        30.01S
JANESVILLE     CLEAR     64  55  72 NE5       29.99S
$$

WIZ051-052-058>065-066-070>072-281000-
SOUTHEAST WISCONSIN

CITY           SKY/WX    TMP DP  RH WIND       PRES   REMARKS
MILWAUKEE      PTCLDY    68  64  87 N9        29.99S
WAUKESHA       CLEAR     59  55  88 N6        30.02R
MILWAUKEE/TIMM CLEAR     61  55  82 N5        30.02R
RACINE         CLEAR     67  64  90 NE9       29.99F
KENOSHA        CLEAR     66  62  87 NE7       29.98S
FOND DU LAC    MOCLDY    66  53  63 NE12      30.04S
SHEBOYGAN      CLOUDY    62  59  90 N7        30.02F
WEST BEND      CLOUDY    63  59  88 N7        30.03S
JUNEAU         CLOUDY    61  56  82 CALM      30.04S
$$

LSZ147-162-281000-
LAKE SUPERIOR

STATION/POSITION TIME  TEMP    WIND        PRES    WAVE
                       AIR SEA DIR/SP/G            HT/PER
                 (UTC) (F)     (DEG/KT/KT) (MB)    (FT/S)
W MID LAKE BUOY  0850   59 54   20/  4/  4 1019.4R   0
DEVILS ISLAND    0900   62      60/  6/  7 1019.3S
SAXON HARBOR     0840   57     200/  5/  6 1019.0S
$$

LMZ867-665-643>646-281000-
LAKE MICHIGAN

STATION/POSITION TIME  TEMP    WIND        PRES    WAVE
                       AIR SEA DIR/SP/G            HT/PER
                 (UTC) (F)     (DEG/KT/KT) (MB)    (FT/S)
CHAMBERS ISLAND  0840   64     350/ 10/ 12 1016.9S
S GREEN BAY BUOY 0900   66 71   10/ 14/ 17 1017.1
N MID LAKE BUOY  0850   63 66  350/ 12/ 14 1017.7R   2/ 4
NORTHPORT PIER   0840   63      10/  9/ 12 1017.3R
KEWAUNEE LAKESHO 0848   61     360/  6/  9 1016.4R
SHEBOYGAN LAKESH 0900   65     350/ 15/ 16 1016.1S
PORT WASHINGTON  0840   65     350/  5/  9 1016.9S
ATWATER BUOY     0709   69 69   20/ 16/ 21 1015.6F
MILWAUKEE LAKESH 0850   67      10/ 14/ 17   N/A
S MID LAKE BUOY  0850   71 72   60/ 10/ 12 1014.1F   3/ 6
KENOSHA   LAKESH 0900   69      20/ 17/ 19 1014.6
$$

TC  - TEMPERATURE IN CELSIUS
VSB - VISIBILITY IN STATUTE MILES
WCI - WIND CHILL INDEX
HX  - HEAT INDEX





USA.gov is the U.S. government's official web portal to all federal, state and local government web resources and services.